Location: Newark
(43.4100°N, 74.9600°W)
Time: 22:25:55
(UTC+00:00)

ISS - Pass Details

Date: 19 September 2019
Orbit: 411 x 421 km, 51.6° (Epoch: 21 October)

Event Time Altitude Azimuth Distance (km) Brightness Sun altitude
Rises 23:54:14 0° 193° (SSW) 2,327 0.1 -9.7°
Reaches altitude 10° 23:56:56 10° 169° (S) 1,471 -1.2 -10.2°
Maximum altitude 23:58:55 15° 132° (SE) 1,207 -2.0 -10.6°
Enters shadow 23:59:18 15° 124° (SE) 1,219 -2.0 -10.6°
